Tracking 28790 objects as of 18-Apr-2024
HD Live streaming from Space Station
objects crossing your sky now

COSMOS 2251 DEB

Track COSMOS 2251 DEB now!
10-day predictions


NORAD ID: 33933
Int'l Code: 1993-036EN
Perigee: 739.9 km
Apogee: 849.9 km
Inclination: 74.1 °
Period: 100.6 minutes
Semi major axis: 7165 km
RCS: 0.033 m2 (small)
Launch date: June 16, 1993
Source: Commonwealth of Independent States (former USSR) (CIS)
Launch site: PLESETSK MISSILE AND SPACE COMPLEX (PKMTR)

Note: This is SATELLITE DEBRIS
Your satellite tracking list
Your tracking list is empty




NASA's NSSDC Master Catalog

Two Line Element Set (TLE):
1 33933U 93036EN  24108.99144918  .00002319  00000-0  85977-3 0  9996
2 33933  74.0888  78.7855 0076714 243.3118 116.0164 14.31188856791444
Source of the keplerian elements: AFSPC